[TLELIST]

Mailing List Information:

  • This mailing list is a public mailing list - anyone may join or leave, at any time.

  • This mailing list is announce-only.

International Space Station (ISS) / Hubble Space Telescope (HST) / Chandra X-Ray Observatory Orbital Data via EMAIL

Privacy Policy:

Private list

Archives:

[TLELIST] Current TLEs

Sent September 16th 2019

HST 1 20580U 90037B 19259.24286890 .00000408 00000-0 13881-4 0 9996 2 20580 28.4704 339.7690 0002788 13.5498 195.0176 15.09266400414432 ISS (ZARYA) 1 25544U 98067A 19259.30267578 .00000806 00000-0 22094-4 0 9999 2 25544 51.6425 269.3516 0007496 54.2840 39.5261 15.50087442189398 CXO 1 25867U 99040B 19259.13748831 +.00000643 +00000-0 +00000-0 0 9994 2 25867 066.5674 273.6870 7322826 232.2467 000.5633 00.37804510008017 ____________________________________________________________________ These 2-Line ...

[TLELIST] Current TLEs

Sent September 15th 2019

HST 1 20580U 90037B 19257.70840412 .00000376 00000-0 11898-4 0 9991 2 20580 28.4705 349.9157 0002728 357.0257 137.7231 15.09265576414200 ISS (ZARYA) 1 25544U 98067A 19258.41017894 .00035812 00000-0 62989-3 0 9995 2 25544 51.6434 273.7723 0007530 48.1740 101.9324 15.50098404189256 CXO 1 25867U 99040B 19259.13748831 +.00000643 +00000-0 +00000-0 0 9994 2 25867 066.5674 273.6870 7322826 232.2467 000.5633 00.37804510008017 ____________________________________________________________________ These 2-Line ...

[TLELIST] Current TLEs

Sent September 14th 2019

HST 1 20580U 90037B 19256.71614473 +.00000379 +00000-0 +12093-4 0 9998 2 20580 028.4705 356.4771 0002684 346.3336 146.4331 15.09265175413960 ISS (ZARYA) 1 25544U 98067A 19257.38567130 -.00000464 00000-0 00000+0 0 9991 2 25544 51.6443 278.8509 0008626 39.1953 149.5626 15.50446082189091 CXO 1 25867U 99040B 19259.13748831 +.00000643 +00000-0 +00000-0 0 9994 2 25867 066.5674 273.6870 7322826 232.2467 000.5633 00.37804510008017 ____________________________________________________________________ These 2-Line ...

[TLELIST] Current TLEs

Sent September 13th 2019

HST 1 20580U 90037B 19255.72373111 +.00000390 +00000-0 +12770-4 0 9994 2 20580 028.4705 003.0395 0002642 335.7920 154.1542 15.09264806413816 ISS (ZARYA) 1 25544U 98067A 19256.35174769 .00000714 00000-0 20275-4 0 9997 2 25544 51.6442 283.9779 0008408 35.9707 138.0212 15.50447515188933 CXO 1 25867U 99040B 19256.49318474 +.00000576 +00000-0 +00000-0 0 9991 2 25867 066.5822 273.7246 7319297 232.3108 000.5379 00.37807781008011 ____________________________________________________________________ These 2-Line ...

[TLELIST] Current TLEs

Sent September 12th 2019

HST 1 20580U 90037B 19255.10508102 .00000392 00000-0 12891-4 0 9992 2 20580 28.4706 7.1304 0002626 328.9227 33.0182 15.09264553413801 ISS (ZARYA) 1 25544U 98067A 19255.37566567 .00000627 00000-0 18782-4 0 9992 2 25544 51.6447 288.8163 0008233 32.1346 90.1492 15.50444561188782 CXO 1 25867U 99040B 19256.49318474 +.00000576 +00000-0 +00000-0 0 9991 2 25867 066.5822 273.7246 7319297 232.3108 000.5379 00.37807781008011 ____________________________________________________________________ These 2-Line ...

[TLELIST] Current TLEs

Sent September 11th 2019

HST 1 20580U 90037B 19253.80700851 +.00000395 +00000-0 +13116-4 0 9996 2 20580 028.4705 015.7139 0002578 314.6115 180.4681 15.09263995413614 ISS (ZARYA) 1 25544U 98067A 19253.63890676 -.00000059 00000-0 69649-5 0 9999 2 25544 51.6436 297.4265 0007943 26.2884 115.7071 15.50439334188517 CXO 1 25867U 99040B 19256.49252518 +.00000576 +00000-0 +00000-0 0 9997 2 25867 066.5822 273.7246 7319294 232.3108 000.4486 00.37807824008003 ____________________________________________________________________ These 2-Line ...

[TLELIST] Current TLEs

Sent September 10th 2019

HST 1 20580U 90037B 19252.81521920 +.00000378 +00000-0 +12042-4 0 9992 2 20580 028.4705 022.2722 0002556 303.2604 192.4013 15.09263418413373 ISS (ZARYA) 1 25544U 98067A 19252.98002081 .00000494 00000-0 16483-4 0 9990 2 25544 51.6455 300.6889 0008051 24.3206 37.6236 15.50440148188414 CXO 1 25867U 99040B 19253.84912094 +.00000499 +00000-0 +00000-0 0 9999 2 25867 066.6079 273.7685 7316594 232.3759 000.5388 00.37807268007998 ____________________________________________________________________ These 2-Line ...

[TLELIST] Current TLEs

Sent September 9th 2019

HST 1 20580U 90037B 19251.68989009 +.00000370 +00000-0 +11576-4 0 9995 2 20580 028.4704 029.7134 0002537 289.8673 199.3729 15.09262850413206 ISS (ZARYA) 1 25544U 98067A 19252.41982639 .00000323 00000-0 13543-4 0 9999 2 25544 51.6452 303.4656 0008053 22.2066 150.8978 15.50438238188325 CXO 1 25867U 99040B 19253.84912094 +.00000499 +00000-0 +00000-0 0 9999 2 25867 066.6079 273.7685 7316594 232.3759 000.5388 00.37807268007998 ____________________________________________________________________ These 2-Line ...

[TLELIST] Current TLEs

Sent September 8th 2019

HST 1 20580U 90037B 19251.06261574 .00000376 00000-0 11921-4 0 9997 2 20580 28.4704 33.8614 0002533 282.9780 31.3093 15.09262602413196 ISS (ZARYA) 1 25544U 98067A 19251.49236350 .00000394 00000-0 14775-4 0 9994 2 25544 51.6452 308.0638 0008029 18.5677 14.4120 15.50436969188182 CXO 1 25867U 99040B 19253.84775141 .00000498 00000-0 00000+0 0 9997 2 25867 66.6078 273.7686 7316604 232.3758 0.3524 0.37807085 19135 ____________________________________________________________________ These 2-Line ...

[TLELIST] Current TLEs

Sent September 7th 2019

HST 1 20580U 90037B 19249.83880117 .00000404 00000-0 13646-4 0 9997 2 20580 28.4703 41.9541 0002524 268.6432 223.0598 15.09262121413016 ISS (ZARYA) 1 25544U 98067A 19250.42165509 .00000853 00000-0 22682-4 0 9999 2 25544 51.6464 313.3688 0008128 15.4300 157.3722 15.50436915188016 CXO 1 25867U 99040B 19251.20497504 +.00000426 +00000-0 +00000-0 0 9991 2 25867 066.6388 273.8135 7313933 232.4487 000.5283 00.37803063007998 ____________________________________________________________________ These 2-Line ...

< < Previous

Index

 

this list's archives:

(archive rss , atom rss/atom )

Administration